Time,TemperatureF,DewpointF,PressureIn,WindDirection,WindDirectionDegrees,WindSpeedMPH,WindSpeedGustMPH,Humidity,HourlyPrecipIn,Conditions,Clouds,dailyrainin,SoftwareType,DateUTC
2013-07-06 00:11:00,77.3,71.0,30.07,West,263,0.0,0.0,82,0.00,,,0.00,weatherlink.com 1.10,2013-07-06 04:11:00,
2013-07-06 00:26:00,76.9,71.0,30.07,SW,222,0.0,2.0,82,0.00,,,0.00,weatherlink.com 1.10,2013-07-06 04:26:00,
2013-07-06 00:41:00,76.8,71.0,30.07,SW,219,0.0,1.0,83,0.00,,,0.00,weatherlink.com 1.10,2013-07-06 04:41:00,
2013-07-06 00:56:00,76.7,71.0,30.07,SW,219,0.0,0.0,83,0.00,,,0.00,weatherlink.com 1.10,2013-07-06 04:56:00,
2013-07-06 01:11:00,76.4,71.0,30.07,SW,219,0.0,0.0,84,0.00,,,0.00,weatherlink.com 1.10,2013-07-06 05:11:00,
2013-07-06 01:26:00,76.0,71.0,30.07,South,190,0.0,1.0,84,0.00,,,0.00,weatherlink.com 1.10,2013-07-06 05:26:00,
2013-07-06 01:41:00,75.8,71.0,30.07,South,190,0.0,0.0,85,0.00,,,0.00,weatherlink.com 1.10,2013-07-06 05:41:00,
2013-07-06 01:56:00,75.3,71.0,30.07,South,190,0.0,0.0,86,0.00,,,0.00,weatherlink.com 1.10,2013-07-06 05:56:00,
2013-07-06 02:11:00,74.8,70.0,30.07,South,190,0.0,0.0,86,0.00,,,0.00,weatherlink.com 1.10,2013-07-06 06:11:00,
2013-07-06 02:26:00,74.4,70.0,30.07,South,190,0.0,0.0,87,0.00,,,0.00,weatherlink.com 1.10,2013-07-06 06:26:00,
2013-07-06 02:41:00,73.9,70.0,30.07,South,190,0.0,0.0,88,0.00,,,0.00,weatherlink.com 1.10,2013-07-06 06:41:00,
2013-07-06 02:56:00,73.4,70.0,30.07,South,190,0.0,0.0,89,0.00,,,0.00,weatherlink.com 1.10,2013-07-06 06:56:00,
2013-07-06 03:11:00,73.0,70.0,30.07,South,190,0.0,0.0,90,0.00,,,0.00,weatherlink.com 1.10,2013-07-06 07:11:00,
2013-07-06 03:26:00,72.6,70.0,30.07,South,190,0.0,0.0,91,0.00,,,0.00,weatherlink.com 1.10,2013-07-06 07:26:00,
2013-07-06 03:41:00,72.3,70.0,30.07,South,190,0.0,0.0,92,0.00,,,0.00,weatherlink.com 1.10,2013-07-06 07:41:00,
2013-07-06 03:56:00,71.9,70.0,30.08,South,190,0.0,0.0,92,0.00,,,0.00,weatherlink.com 1.10,2013-07-06 07:56:00,
2013-07-06 04:11:00,71.6,70.0,30.07,South,190,0.0,0.0,93,0.00,,,0.00,weatherlink.com 1.10,2013-07-06 08:11:00,
2013-07-06 04:27:00,71.3,69.0,30.07,South,190,0.0,0.0,93,0.00,,,0.00,weatherlink.com 1.10,2013-07-06 08:27:00,
2013-07-06 04:42:00,71.0,69.0,30.07,South,190,0.0,1.0,93,0.00,,,0.00,weatherlink.com 1.10,2013-07-06 08:42:00,
2013-07-06 04:56:00,70.7,69.0,30.07,South,190,0.0,0.0,94,0.00,,,0.00,weatherlink.com 1.10,2013-07-06 08:56:00,
2013-07-06 05:11:00,70.5,69.0,30.08,South,190,0.0,0.0,94,0.00,,,0.00,weatherlink.com 1.10,2013-07-06 09:11:00,
2013-07-06 05:26:00,70.4,69.0,30.08,SSW,192,0.0,0.0,95,0.00,,,0.00,weatherlink.com 1.10,2013-07-06 09:26:00,
2013-07-06 05:42:00,70.4,69.0,30.09,SSW,196,0.0,1.0,95,0.00,,,0.00,weatherlink.com 1.10,2013-07-06 09:42:00,
2013-07-06 05:57:00,70.3,69.0,30.09,SSW,199,0.0,0.0,95,0.01,,,0.01,weatherlink.com 1.10,2013-07-06 09:57:00,
2013-07-06 06:12:00,70.4,69.0,30.09,SSW,202,0.0,0.0,96,0.01,,,0.01,weatherlink.com 1.10,2013-07-06 10:12:00,
2013-07-06 06:27:00,71.0,70.0,30.09,SSW,202,0.0,0.0,96,0.02,,,0.02,weatherlink.com 1.10,2013-07-06 10:27:00,
2013-07-06 06:42:00,72.2,70.0,30.10,SSW,202,0.0,1.0,94,0.02,,,0.02,weatherlink.com 1.10,2013-07-06 10:42:00,
2013-07-06 06:57:00,73.7,71.0,30.10,SSW,202,0.0,0.0,92,0.01,,,0.02,weatherlink.com 1.10,2013-07-06 10:57:00,
2013-07-06 07:12:00,75.0,72.0,30.10,South,178,0.0,1.0,89,0.01,,,0.02,weatherlink.com 1.10,2013-07-06 11:12:00,
2013-07-06 07:27:00,76.2,72.0,30.11,South,171,0.0,1.0,86,0.00,,,0.02,weatherlink.com 1.10,2013-07-06 11:27:00,
2013-07-06 07:42:00,77.7,72.0,30.11,ENE,61,0.0,1.0,83,0.00,,,0.02,weatherlink.com 1.10,2013-07-06 11:42:00,
2013-07-06 07:57:00,79.2,73.0,30.11,ENE,61,0.0,1.0,80,0.00,,,0.02,weatherlink.com 1.10,2013-07-06 11:57:00,
2013-07-06 08:12:00,80.1,72.0,30.11,ENE,75,0.0,2.0,77,0.00,,,0.02,weatherlink.com 1.10,2013-07-06 12:12:00,
2013-07-06 08:27:00,81.0,73.0,30.10,ENE,71,0.0,2.0,76,0.00,,,0.02,weatherlink.com 1.10,2013-07-06 12:27:00,
2013-07-06 08:42:00,82.1,73.0,30.10,ESE,105,0.0,3.0,73,0.00,,,0.02,weatherlink.com 1.10,2013-07-06 12:42:00,
2013-07-06 08:57:00,83.8,73.0,30.10,SE,127,2.0,2.0,71,0.00,,,0.02,weatherlink.com 1.10,2013-07-06 12:57:00,
2013-07-06 09:12:00,84.2,74.0,30.11,ESE,109,0.0,2.0,71,0.00,,,0.02,weatherlink.com 1.10,2013-07-06 13:12:00,
2013-07-06 09:27:00,85.3,73.0,30.10,ENE,63,0.0,3.0,66,0.00,,,0.02,weatherlink.com 1.10,2013-07-06 13:27:00,
2013-07-06 09:42:00,86.8,72.0,30.10,WNW,290,2.0,4.0,62,0.00,,,0.02,weatherlink.com 1.10,2013-07-06 13:42:00,
2013-07-06 09:57:00,87.8,72.0,30.10,WNW,302,2.0,6.0,60,0.00,,,0.02,weatherlink.com 1.10,2013-07-06 13:57:00,
2013-07-06 10:12:00,88.6,72.0,30.10,ESE,107,0.0,5.0,59,0.00,,,0.02,weatherlink.com 1.10,2013-07-06 14:12:00,
2013-07-06 10:27:00,89.1,73.0,30.10,WNW,288,4.0,5.0,60,0.00,,,0.02,weatherlink.com 1.10,2013-07-06 14:27:00,
2013-07-06 10:43:00,89.7,71.0,30.09,ENE,74,0.0,2.0,55,0.00,,,0.02,weatherlink.com 1.10,2013-07-06 14:43:00,
2013-07-06 10:57:00,89.8,71.0,30.09,SE,128,0.0,4.0,54,0.00,,,0.02,weatherlink.com 1.10,2013-07-06 14:57:00,
2013-07-06 11:12:00,90.1,72.0,30.09,SSE,151,1.0,3.0,56,0.00,,,0.02,weatherlink.com 1.10,2013-07-06 15:12:00,
2013-07-06 11:27:00,89.4,72.0,30.09,East,88,0.0,5.0,56,0.00,,,0.02,weatherlink.com 1.10,2013-07-06 15:27:00,
2013-07-06 11:42:00,90.3,72.0,30.09,SE,124,1.0,3.0,56,0.00,,,0.02,weatherlink.com 1.10,2013-07-06 15:42:00,
2013-07-06 12:13:00,91.2,72.0,30.08,NNE,26,0.0,3.0,53,0.00,,,0.02,weatherlink.com 1.10,2013-07-06 16:13:00,
2013-07-06 12:28:00,90.8,71.0,30.07,East,89,0.0,5.0,52,0.00,,,0.02,weatherlink.com 1.10,2013-07-06 16:28:00,
2013-07-06 12:43:00,91.3,71.0,30.07,NE,53,0.0,5.0,52,0.00,,,0.02,weatherlink.com 1.10,2013-07-06 16:43:00,
2013-07-06 12:58:00,92.1,74.0,30.06,East,89,0.0,4.0,55,0.00,,,0.02,weatherlink.com 1.10,2013-07-06 16:58:00,
2013-07-06 14:28:00,94.1,72.0,30.04,SSW,207,0.0,3.0,49,0.00,,,0.02,weatherlink.com 1.10,2013-07-06 18:28:00,
2013-07-06 14:43:00,93.1,73.0,30.03,East,86,1.0,6.0,52,0.00,,,0.02,weatherlink.com 1.10,2013-07-06 18:43:00,
2013-07-06 14:58:00,91.5,72.0,30.02,ESE,115,2.0,6.0,53,0.00,,,0.02,weatherlink.com 1.10,2013-07-06 18:58:00,
2013-07-06 15:58:00,93.1,73.0,30.00,West,277,0.0,6.0,52,0.00,,,0.02,weatherlink.com 1.10,2013-07-06 19:58:00,
2013-07-06 16:13:00,92.7,73.0,30.00,ENE,68,1.0,4.0,53,0.00,,,0.02,weatherlink.com 1.10,2013-07-06 20:13:00,
2013-07-06 16:28:00,92.7,74.0,30.00,NE,53,1.0,3.0,55,0.00,,,0.02,weatherlink.com 1.10,2013-07-06 20:28:00,
2013-07-06 16:43:00,93.1,73.0,29.99,ENE,67,1.0,4.0,52,0.00,,,0.02,weatherlink.com 1.10,2013-07-06 20:43:00,
2013-07-06 17:13:00,93.2,72.0,29.98,ENE,65,0.0,6.0,51,0.00,,,0.02,weatherlink.com 1.10,2013-07-06 21:13:00,
2013-07-06 17:43:00,92.2,74.0,29.98,ENE,64,1.0,5.0,55,0.00,,,0.02,weatherlink.com 1.10,2013-07-06 21:43:00,
2013-07-06 17:58:00,91.5,73.0,29.97,ENE,68,1.0,4.0,55,0.00,,,0.02,weatherlink.com 1.10,2013-07-06 21:58:00,
2013-07-06 18:43:00,89.6,73.0,29.97,ESE,106,3.0,5.0,58,0.00,,,0.02,weatherlink.com 1.10,2013-07-06 22:43:00,
2013-07-06 19:13:00,89.0,72.0,29.97,East,80,0.0,5.0,58,0.00,,,0.02,weatherlink.com 1.10,2013-07-06 23:13:00,
2013-07-06 19:28:00,88.6,72.0,29.97,South,183,1.0,4.0,59,0.00,,,0.02,weatherlink.com 1.10,2013-07-06 23:28:00,
2013-07-06 19:58:00,86.9,71.0,29.97,South,169,0.0,7.0,60,0.00,,,0.02,weatherlink.com 1.10,2013-07-06 23:58:00,
2013-07-06 20:13:00,85.8,71.0,29.97,NE,40,2.0,4.0,62,0.00,,,0.02,weatherlink.com 1.10,2013-07-07 00:13:00,
2013-07-06 20:29:00,84.7,72.0,29.97,SSW,209,2.0,3.0,65,0.00,,,0.02,weatherlink.com 1.10,2013-07-07 00:29:00,
2013-07-06 20:44:00,83.7,72.0,29.98,South,175,2.0,3.0,67,0.00,,,0.02,weatherlink.com 1.10,2013-07-07 00:44:00,
2013-07-06 20:59:00,82.8,72.0,29.97,North,360,0.0,2.0,69,0.00,,,0.02,weatherlink.com 1.10,2013-07-07 00:59:00,
2013-07-06 21:14:00,82.1,71.0,29.98,SW,234,1.0,3.0,70,0.00,,,0.02,weatherlink.com 1.10,2013-07-07 01:14:00,
2013-07-06 21:44:00,80.9,71.0,29.99,WSW,239,0.0,2.0,72,0.00,,,0.02,weatherlink.com 1.10,2013-07-07 01:44:00,
2013-07-06 22:14:00,80.0,70.0,30.00,SE,128,0.0,3.0,72,0.00,,,0.02,weatherlink.com 1.10,2013-07-07 02:14:00,
2013-07-06 22:44:00,79.0,70.0,30.01,WNW,286,0.0,1.0,73,0.00,,,0.02,weatherlink.com 1.10,2013-07-07 02:44:00,
2013-07-06 22:59:00,78.5,70.0,30.01,West,281,0.0,1.0,74,0.00,,,0.02,weatherlink.com 1.10,2013-07-07 02:59:00,
2013-07-06 23:29:00,77.1,69.0,30.01,West,281,0.0,0.0,77,0.00,,,0.02,weatherlink.com 1.10,2013-07-07 03:29:00,
2013-07-06 23:44:00,76.5,69.0,30.01,West,281,0.0,0.0,77,0.00,,,0.02,weatherlink.com 1.10,2013-07-07 03:44:00,
2013-07-06 23:59:00,76.2,69.0,30.02,West,281,0.0,0.0,78,0.00,,,0.02,weatherlink.com 1.10,2013-07-07 03:59:00,